(345031) = 2005 EN148

Discovered at Kitt Peak on 2005-03-10 by Spacewatch.

Orbit

Orbit type: Main Belt

Note: WebGL enabled browser required.

epoch2023-09-13.0
epoch JD2460200.5
perihelion date2022-10-20.28584
perihelion JD2459872.78584
argument of perihelion (°)260.17584
ascending node (°)31.54073
inclination (°)9.26476
eccentricity0.0667539
perihelion distance (AU)2.8694138
Tisserand w.r.t. Jupiter3.2
ΔV w.r.t. Earth (km/sec)10.9
semimajor axis (AU)3.0746594
mean anomaly (°)59.91058
mean daily motion (°/day)0.18281350
aphelion distance (AU)3.280
period (years)5.39
P-vector [x]0.36329167
P-vector [y]-0.77921160
P-vector [z]-0.51073324
Q-vector [x]0.92786123
Q-vector [y]0.35215006
Q-vector [z]0.12273500
absolute magnitude15.89
phase slope0.15
uncertainty0
referenceMPO 779466
observations used289
oppositions12
arc length (days)7675
first opposition used2002
last opposition used2023
residual rms (arc-secs)0.69
perturbers coarse indicatorM-v
perturbers precise indicator003Ek
first observation date used2002-10-30.0
last observation date used2023-11-05.0
computer nameMPCLINUX
JD of orbit computation2456639.810568
perihelion JD uncertainty (days)5.1751E-04
argument of perihelion uncertainty (°)9.5852E-05
ascending node uncertainty (°)3.4166E-05
inclination uncertainty (°)1.0716E-05
eccentricity uncertainty 7.2469E-08
perihelion distance uncertainty (AU)1.9008E-07
Minimum Orbit Intersection Distances (in AU)
for orbit epoch: 2460200.5, reference: E2023-V65
Mercury2.41489
Venus2.14905
Earth1.87213
Mars1.41701
Jupiter1.85211
Saturn5.84846
Uranus15.2674
Neptune26.7139

Observations

296 total observations over interval: 2002 10 30.94694 – 2023 11 05.309317
These data are available for download (format description).

Date (UT) J2000 RA J2000 Dec Magn Location Ref
2002 10 30.94694 03 03 15.90 +20 32 48.1 20.0 V 049 – Uppsala-Kvistaberg MPS 284338
2002 10 30.96005 03 03 15.23 +20 32 48.1 20.5 V 049 – Uppsala-Kvistaberg MPS 284338
2002 10 30.97554 03 03 14.43 +20 32 47.1 19.9 V 049 – Uppsala-Kvistaberg MPS 284338
2005 03 10.47353 13 07 01.33 -01 14 30.7 20.7 V 691 – Steward Observatory, Kitt Peak-Spacewatch MPS 129269
2005 03 10.49433 13 07 00.52 -01 14 27.4 20.6 V 691 – Steward Observatory, Kitt Peak-Spacewatch MPS 129269
2005 03 10.51470 13 06 59.73 -01 14 25.0 20.4 V 691 – Steward Observatory, Kitt Peak-Spacewatch MPS 129269
2005 03 11.39444 13 06 27.73 -01 12 18.5 20.4 V 691 – Steward Observatory, Kitt Peak-Spacewatch MPS 129269
2005 03 11.41978 13 06 26.77 -01 12 14.8 20.7 V 691 – Steward Observatory, Kitt Peak-Spacewatch MPS 129269
2005 03 11.44506 13 06 25.77 -01 12 11.1 20.6 V 691 – Steward Observatory, Kitt Peak-Spacewatch MPS 129269
2005 05 02.13604 12 28 15.52 +00 32 31.5 20.6 V 691 – Steward Observatory, Kitt Peak-Spacewatch MPS 212426
2005 05 02.15194 12 28 15.01 +00 32 31.5 20.5 V 691 – Steward Observatory, Kitt Peak-Spacewatch MPS 212426
2005 05 02.16785 12 28 14.47 +00 32 31.7 20.6 V 691 – Steward Observatory, Kitt Peak-Spacewatch MPS 212426
2005 05 11.24660 12 24 15.15 +00 27 32.0 19.9 R G96 – Mt. Lemmon Survey MPS 212426
2005 05 11.25404 12 24 14.99 +00 27 31.1 20.5 R G96 – Mt. Lemmon Survey MPS 212426
2005 05 11.26146 12 24 14.82 +00 27 31.2 20.0 R G96 – Mt. Lemmon Survey MPS 212426
2005 05 11.26891 12 24 14.63 +00 27 30.4 20.2 R G96 – Mt. Lemmon Survey MPS 212426
2007 09 10.44910 01 28 26.56 +04 14 41.7 20.4 V 691 – Steward Observatory, Kitt Peak-Spacewatch MPS 284338
2007 09 10.46668 01 28 26.04 +04 14 39.9 20.0 V 691 – Steward Observatory, Kitt Peak-Spacewatch MPS 284338
2007 09 10.49693 01 28 25.06 +04 14 37.3 20.6 V 691 – Steward Observatory, Kitt Peak-Spacewatch MPS 284338
2007 10 13.24939 01 04 28.56 +03 02 14.2 19.9 V G96 – Mt. Lemmon Survey MPS 284338
2007 10 13.25520 01 04 28.27 +03 02 13.5 19.9 V G96 – Mt. Lemmon Survey MPS 284338
2007 10 13.26101 01 04 27.94 +03 02 12.6 19.9 V G96 – Mt. Lemmon Survey MPS 284338
2007 10 13.26681 01 04 27.66 +03 02 12.4 20.0 V G96 – Mt. Lemmon Survey MPS 284338
2007 11 01.07591 00 50 05.53 +02 30 24.4   691 – Steward Observatory, Kitt Peak-Spacewatch MPS 284338
2007 11 01.10027 00 50 04.56 +02 30 23.9   691 – Steward Observatory, Kitt Peak-Spacewatch MPS 284338
2007 11 01.12462 00 50 03.54 +02 30 21.9   691 – Steward Observatory, Kitt Peak-Spacewatch MPS 284338
2007 11 07.20412 00 46 25.39 +02 26 45.8 20.6 V G96 – Mt. Lemmon Survey MPS 284338
2007 11 07.20977 00 46 25.17 +02 26 46.0 20.6 V G96 – Mt. Lemmon Survey MPS 284338
2007 11 07.21552 00 46 24.96 +02 26 46.1 20.6 V G96 – Mt. Lemmon Survey MPS 284338
2012 09 04.454410 23 13 51.036 -16 34 18.29 19.6 i F51 – Pan-STARRS 1, Haleakala MPS 431060
2012 09 04.467173 23 13 50.376 -16 34 20.66 19.6 i F51 – Pan-STARRS 1, Haleakala MPS 431060
2012 11 02.270299 22 44 53.997 -15 34 58.26 20.8 r F51 – Pan-STARRS 1, Haleakala MPS 439472
2012 11 02.280918 22 44 54.049 -15 34 55.28 20.9 r F51 – Pan-STARRS 1, Haleakala MPS 439472
2013 10 06.47008 04 30 02.43 +26 26 24.2 21.1 V G96 – Mt. Lemmon Survey MPS 483543
2013 10 06.47535 04 30 02.38 +26 26 25.2 21.4 V G96 – Mt. Lemmon Survey MPS 483543
2013 10 06.48066 04 30 02.33 +26 26 26.8 21.6 V G96 – Mt. Lemmon Survey MPS 483543
2013 10 06.48598 04 30 02.33 +26 26 27.3 21.5 V G96 – Mt. Lemmon Survey MPS 483543
2013 11 01.44996 04 18 47.46 +27 25 02.3 21.3 V 691 – Steward Observatory, Kitt Peak-Spacewatch MPS 487103
2013 11 01.47116 04 18 46.56 +27 25 04.4 20.8 V 691 – Steward Observatory, Kitt Peak-Spacewatch MPS 487103
2013 11 01.48891 04 18 45.74 +27 25 05.3 21.5 V 691 – Steward Observatory, Kitt Peak-Spacewatch MPS 487103
2013 11 07.42268 04 14 08.30 +27 31 48.6 20.8 V 691 – Steward Observatory, Kitt Peak-Spacewatch MPS 490927
2013 11 07.44065 04 14 07.36 +27 31 49.2 20.8 V 691 – Steward Observatory, Kitt Peak-Spacewatch MPS 490927
2013 11 07.45863 04 14 06.43 +27 31 49.7 20.8 V 691 – Steward Observatory, Kitt Peak-Spacewatch MPS 490927
2013 11 11.41434 04 10 43.31 +27 34 35.2 20.7 V 691 – Steward Observatory, Kitt Peak-Spacewatch MPS 489885
2013 11 11.43209 04 10 42.38 +27 34 35.5 20.7 V 691 – Steward Observatory, Kitt Peak-Spacewatch MPS 489885
2013 11 11.44983 04 10 41.42 +27 34 35.8 21.0 V 691 – Steward Observatory, Kitt Peak-Spacewatch MPS 489885
2013 12 03.29076 03 50 17.738 +27 25 35.62 20.5 w F51 – Pan-STARRS 1, Haleakala MPS 490927
2013 12 03.30490 03 50 16.950 +27 25 34.55 20.6 w F51 – Pan-STARRS 1, Haleakala MPS 490927
2013 12 03.31902 03 50 16.155 +27 25 33.65 20.6 w F51 – Pan-STARRS 1, Haleakala MPS 490927
2013 12 03.33320 03 50 15.365 +27 25 32.66 20.6 w F51 – Pan-STARRS 1, Haleakala MPS 490927
2015 01 20.38320 09 33 13.74 +28 05 23.7 20.2 V G96 – Mt. Lemmon Survey MPS 567149
2015 01 20.39104 09 33 13.31 +28 05 25.8 20.4 V G96 – Mt. Lemmon Survey MPS 567149
2015 01 20.39888 09 33 12.94 +28 05 28.1 20.4 V G96 – Mt. Lemmon Survey MPS 567149
2015 01 20.40671 09 33 12.57 +28 05 30.5 20.4 V G96 – Mt. Lemmon Survey MPS 567149
2015 01 22.39436 09 31 39.34 +28 14 37.8 20.5 V G96 – Mt. Lemmon Survey MPS 567149
2015 01 22.39957 09 31 39.09 +28 14 39.0 20.2 V G96 – Mt. Lemmon Survey MPS 567149
2015 01 22.40476 09 31 38.83 +28 14 40.5 20.4 V G96 – Mt. Lemmon Survey MPS 567149
2015 01 22.40996 09 31 38.58 +28 14 41.8 20.5 V G96 – Mt. Lemmon Survey MPS 567149
2015 01 23.37314 09 30 52.26 +28 19 02.3 20.4 V G96 – Mt. Lemmon Survey MPS 569445
2015 01 23.37665 09 30 51.99 +28 19 03.8 20.5 V G96 – Mt. Lemmon Survey MPS 569445
2015 01 23.38016 09 30 51.89 +28 19 04.8 20.4 V G96 – Mt. Lemmon Survey MPS 569445
2015 01 23.38562 09 30 51.51 +28 19 05.5 21.1 V G96 – Mt. Lemmon Survey MPS 569445
2015 02 13.25661 09 12 25.97 +29 31 27.2 20.4 V G96 – Mt. Lemmon Survey MPS 579822
2015 02 13.25970 09 12 25.80 +29 31 28.3 20.8 V G96 – Mt. Lemmon Survey MPS 579822
2015 02 13.26278 09 12 25.61 +29 31 27.9 20.5 V G96 – Mt. Lemmon Survey MPS 579822
2015 02 13.26587 09 12 25.51 +29 31 28.8 20.3 V G96 – Mt. Lemmon Survey MPS 579822
2015 02 17.33159 09 08 51.970 +29 39 03.99 20.9 w F51 – Pan-STARRS 1, Haleakala MPS 583055
2015 02 17.34439 09 08 51.289 +29 39 05.35 20.9 w F51 – Pan-STARRS 1, Haleakala MPS 583055
2015 02 17.35722 09 08 50.618 +29 39 06.62 20.8 w F51 – Pan-STARRS 1, Haleakala MPS 583056
2015 02 17.37016 09 08 49.918 +29 39 07.69 21.0 w F51 – Pan-STARRS 1, Haleakala MPS 583056
2015 03 24.37293 08 49 28.187 +29 04 57.11 21.4 w F51 – Pan-STARRS 1, Haleakala MPS 595066
2015 03 24.38556 08 49 28.038 +29 04 54.51 21.5 w F51 – Pan-STARRS 1, Haleakala MPS 595066
2015 03 24.39810 08 49 27.898 +29 04 52.28 21.4 w F51 – Pan-STARRS 1, Haleakala MPS 595066
2015 03 24.41065 08 49 27.747 +29 04 49.61 21.6 w F51 – Pan-STARRS 1, Haleakala MPS 595066
2016 02 10.57547 14 16 36.019 -10 53 49.98 21.1 w F51 – Pan-STARRS 1, Haleakala MPS 682197
2016 02 10.58675 14 16 36.277 -10 53 52.11 21.3 w F51 – Pan-STARRS 1, Haleakala MPS 682197
2016 02 10.59805 14 16 36.514 -10 53 54.25 21.2 w F51 – Pan-STARRS 1, Haleakala MPS 682197
2016 02 10.60930 14 16 36.752 -10 53 56.39 21.1 w F51 – Pan-STARRS 1, Haleakala MPS 682197
2016 03 13.53534 14 17 52.912 -11 51 33.95 20.7 w F51 – Pan-STARRS 1, Haleakala MPS 695688
2016 03 13.54779 14 17 52.661 -11 51 34.30 20.8 w F51 – Pan-STARRS 1, Haleakala MPS 695688
2016 03 13.56016 14 17 52.399 -11 51 34.58 20.7 w F51 – Pan-STARRS 1, Haleakala MPS 695688
2016 03 13.57261 14 17 52.133 -11 51 34.84 20.6 w F51 – Pan-STARRS 1, Haleakala MPS 695688
2016 04 05.46579 14 05 07.526 -11 39 38.25 20.3 w F51 – Pan-STARRS 1, Haleakala MPS 700947
2016 04 05.47810 14 05 06.947 -11 39 37.27 20.2 w F51 – Pan-STARRS 1, Haleakala MPS 700947
2016 04 05.49039 14 05 06.371 -11 39 36.27 20.2 w F51 – Pan-STARRS 1, Haleakala MPS 700947
2016 04 05.50270 14 05 05.790 -11 39 35.32 20.3 w F51 – Pan-STARRS 1, Haleakala MPS 700947
2016 04 13.33750 13 58 50.98 -11 27 46.6   703 – Catalina Sky Survey MPS 703549
2016 04 13.34491 13 58 50.60 -11 27 44.4   703 – Catalina Sky Survey MPS 703549
2016 04 13.35973 13 58 49.85 -11 27 43.3 20.3 V 703 – Catalina Sky Survey MPS 703549
